Theta_e
286 287 287 288 287 287 286 286 285 285 286 285 283 284 285 285 281 279 284 285 283 286 288 291 292 293 293 294 294 295 296 295 294 292 291 293 294 294 290 289 291 291 291 292 291 290 289 287 286 286 286 286 286 286 286 286 285 285 285 284 283 283 282 282 282 281 281 280 280 279 278 278 278 278 277 277 277 276 276 275 275 275 274 273 273 272 272
285 286 286 287 286 286 286 286 286 286 286 285 285 285 286 286 284 286 286 286 286 288 289 291 293 294 294 295 296 296 294 294 294 293 293 293 294 294 291 290 292 293 293 293 292 290 289 287 287 286 286 285 285 285 286 285 285 285 284 283 283 282 282 282 281 280 280 279 279 278 278 277 277 277 277 276 275 275 275 274 273 273 272 272 272 271 271
284 286 287 287 286 286 284 286 286 287 287 286 286 286 286 286 285 286 286 285 285 290 293 293 294 295 295 295 294 294 295 295 294 293 293 293 294 293 291 292 293 294 293 293 292 290 288 288 287 287 287 286 286 286 286 285 285 284 284 283 283 282 282 282 281 280 279 279 278 278 278 277 277 276 276 275 274 274 272 271 271 272 272 271 271 271 271
281 286 285 285 286 285 284 284 285 286 286 284 286 285 286 285 284 285 285 283 284 290 293 294 294 294 293 293 293 294 295 295 295 294 293 293 292 290 291 292 292 293 293 293 292 291 289 289 288 287 287 286 285 285 285 285 285 284 283 283 282 282 282 281 280 280 279 278 277 277 277 277 276 275 274 273 273 272 271 271 271 271 271 271 271 271 271
281 286 286 285 284 283 280 281 285 287 288 288 288 289 289 288 288 284 282 283 289 291 293 292 292 293 293 293 293 293 294 295 295 294 294 294 294 294 292 292 292 294 293 293 293 293 292 291 289 288 288 286 285 285 285 285 284 282 283 283 282 281 281 280 279 279 278 277 277 276 276 276 275 273 273 273 272 271 271 272 271 271 271 270 270 270 270
281 285 285 285 281 274 276 287 290 290 287 287 286 286 287 289 289 287 290 290 292 293 292 291 292 292 293 294 294 295 294 293 294 294 295 295 295 294 293 293 295 295 294 294 293 293 293 293 292 291 288 287 287 286 285 283 282 282 282 282 281 280 280 279 279 278 277 277 277 276 275 274 273 272 272 272 271 271 271 270 270 270 270 270 270 270 270
280 285 284 280 274 276 287 290 291 292 291 290 289 289 290 290 291 291 290 290 291 292 293 293 293 294 295 295 295 295 293 292 293 294 295 296 295 294 293 294 294 292 292 292 292 292 292 292 291 289 287 287 286 283 283 282 282 281 281 281 280 280 279 279 278 278 277 276 276 275 274 273 272 272 272 271 270 270 269 269 269 269 269 269 269 270 270
284 281 280 273 275 286 287 290 290 292 292 290 289 286 289 291 291 291 289 291 292 293 293 294 294 294 294 295 295 294 295 295 294 294 294 295 295 294 293 293 293 292 291 292 292 293 293 290 289 288 288 286 284 284 283 283 282 281 281 280 280 279 279 278 278 277 277 276 275 274 273 272 271 272 271 270 269 269 269 269 269 269 269 269 269 269 270
278 280 280 279 286 285 283 284 285 288 285 286 285 281 285 291 291 291 290 291 292 293 292 294 293 293 293 291 291 294 294 292 293 293 293 294 295 295 295 295 294 294 293 293 293 292 290 290 288 286 285 284 284 282 281 281 281 280 280 279 279 279 278 278 277 277 277 275 274 272 272 271 271 271 270 269 269 269 268 269 268 268 268 268 269 269 269
286 279 278 279 278 275 282 290 291 293 292 292 291 287 285 288 283 287 286 284 285 285 286 286 287 288 286 286 287 288 289 290 290 291 291 292 292 292 292 293 292 291 291 291 290 290 290 288 287 285 283 283 282 281 281 280 280 279 279 279 279 278 278 278 277 276 276 275 273 272 271 271 270 270 270 269 269 269 268 267 267 267 267 267 268 269 269
283 280 276 277 276 279 285 282 286 290 293 291 290 285 281 284 284 287 287 285 285 285 285 286 287 285 282 282 284 288 289 289 289 289 290 290 291 290 289 288 288 288 287 286 286 285 285 285 281 281 281 282 281 281 280 279 279 279 279 279 278 278 278 277 276 276 275 274 273 271 271 271 270 269 269 268 268 268 268 267 267 267 267 267 267 268 268
281 281 278 276 281 280 278 281 284 286 287 290 285 276 276 279 281 287 286 285 285 284 285 286 285 283 280 281 285 288 288 288 288 288 289 289 289 289 289 289 287 284 283 284 284 282 282 280 278 279 279 280 280 280 279 278 278 278 278 279 279 278 277 276 275 275 274 273 272 271 271 270 270 269 269 267 267 267 267 267 267 266 266 266 266 266 267
281 281 279 282 283 283 281 282 285 284 286 285 279 274 273 278 282 286 285 284 285 285 285 284 282 284 285 287 288 288 287 287 287 289 289 289 288 288 288 287 287 287 284 283 283 283 281 279 278 277 278 279 278 277 277 277 278 279 279 277 277 276 275 274 274 274 273 273 271 271 271 270 269 268 268 267 267 266 266 266 266 266 265 265 265 266 267
275 275 274 276 282 280 282 283 284 283 281 277 271 276 281 282 283 285 285 283 284 285 284 283 285 285 287 287 288 287 286 286 287 288 288 289 290 289 287 286 286 287 288 287 282 279 278 278 278 277 278 278 276 276 275 277 278 276 276 275 275 274 274 274 273 272 272 272 271 270 270 269 268 267 267 267 266 266 266 266 265 265 265 265 265 265 266
275 274 273 272 271 280 284 281 280 282 273 273 280 281 282 284 284 283 283 284 283 285 283 284 285 285 286 286 286 286 286 286 286 287 287 288 288 288 288 288 287 283 285 286 284 279 277 276 277 278 278 278 276 276 276 278 275 275 274 274 274 273 272 272 271 271 270 270 270 269 268 268 267 266 266 265 265 265 265 265 265 264 264 265 265 265 265
271 272 270 270 277 279 283 280 273 278 279 283 283 282 280 282 284 283 283 283 284 284 283 283 284 285 285 285 286 286 286 286 287 287 287 288 288 287 286 284 284 281 284 283 282 278 275 276 276 278 278 279 277 276 278 275 274 273 274 273 273 272 271 271 270 270 269 269 268 268 267 267 266 265 265 264 264 264 265 264 264 264 264 264 265 265 265
275 271 276 280 282 281 282 281 280 281 283 284 283 283 282 281 281 282 281 281 282 283 283 283 284 283 284 284 285 284 285 286 287 287 288 288 288 288 288 288 285 281 284 285 284 279 275 275 276 277 278 279 278 277 277 274 275 274 273 272 272 271 270 270 269 269 268 268 267 266 266 266 265 265 264 264 264 264 265 265 264 264 264 265 265 265 265
280 279 279 280 280 280 280 282 283 282 283 283 281 280 278 279 280 280 280 280 282 282 283 282 282 282 282 283 283 284 285 286 287 288 288 288 288 288 287 286 286 286 282 279 278 280 277 273 275 276 277 278 279 280 277 275 275 274 273 272 271 270 270 269 269 268 267 266 266 266 266 266 266 265 264 264 264 264 265 264 264 264 264 265 265 265 265
272 267 277 277 278 280 280 280 282 282 282 279 279 277 278 278 279 279 280 281 281 282 282 281 280 280 281 281 282 283 284 285 285 286 286 286 286 286 286 287 286 286 284 283 280 278 279 276 274 275 275 277 279 277 274 275 274 272 271 271 270 270 269 269 268 267 267 266 265 265 265 265 265 265 265 265 265 264 264 264 265 265 265 265 265 265 265
270 270 275 277 279 279 279 278 278 278 278 278 278 277 277 278 278 279 279 280 280 280 279 279 279 279 280 280 281 282 283 284 284 284 284 284 285 286 286 287 286 286 285 283 282 281 280 281 277 276 276 277 277 275 273 273 272 271 271 271 271 270 269 268 266 267 266 265 265 265 265 265 264 264 264 265 265 265 265 265 265 265 265 265 265 266 265
273 275 276 276 275 276 277 276 275 276 275 276 276 276 276 277 277 278 278 279 278 278 277 278 278 277 278 279 280 280 281 281 281 282 283 284 284 285 285 286 286 286 286 285 284 283 283 284 281 277 277 277 276 276 274 272 271 271 271 271 270 269 268 267 266 266 266 265 265 265 265 264 265 265 264 264 265 266 268 268 268 267 266 266 267 267 267
268 269 271 273 269 270 275 274 273 273 274 274 274 274 274 275 275 275 275 275 276 276 277 276 276 275 275 276 277 277 278 278 279 280 281 282 283 284 285 286 286 285 285 284 284 284 285 285 282 280 279 278 276 276 274 273 272 271 270 270 269 268 267 266 266 265 265 265 265 265 264 264 263 264 267 270 268 266 266 270 271 272 271 268 268 267 267
268 274 272 274 274 273 274 275 273 273 273 273 271 271 272 273 273 273 272 272 272 273 273 274 273 273 273 273 275 274 275 276 277 278 278 279 279 280 281 281 282 283 284 284 283 283 283 283 281 280 279 278 276 274 273 273 272 272 270 269 269 268 267 266 265 265 265 265 265 265 264 264 264 264 265 268 271 271 271 272 273 273 273 273 273 272 268
275 275 272 272 270 272 274 273 273 272 273 271 270 271 271 271 270 270 270 270 270 270 270 271 271 271 271 272 272 271 272 272 273 273 274 275 275 276 276 276 278 279 281 283 283 283 283 283 281 280 279 277 275 274 273 272 272 271 270 270 268 268 267 266 265 265 265 264 264 264 264 264 264 265 265 265 267 272 273 274 275 275 275 274 274 273 272
274 271 269 270 270 270 271 272 272 273 272 270 269 269 269 269 269 269 268 268 269 268 267 267 268 270 270 270 269 269 269 269 270 271 271 272 272 272 272 273 273 275 277 279 280 281 282 282 281 279 278 278 276 273 272 271 271 271 270 270 269 268 266 266 265 265 264 264 264 264 264 264 264 265 265 265 265 267 271 275 276 275 275 275 274 274 274
270 269 269 269 269 269 271 271 271 271 269 269 268 268 268 269 268 268 267 267 267 267 266 266 267 268 268 267 267 267 267 267 268 269 268 268 269 269 270 271 273 274 274 274 274 275 276 278 280 279 278 278 276 273 272 271 271 271 271 270 270 268 266 266 265 264 264 264 264 264 265 265 265 266 266 267 267 268 268 269 271 273 275 275 275 274 274
267 268 267 267 269 270 271 268 268 269 268 268 267 267 267 267 268 267 266 266 265 266 266 266 266 266 266 265 265 265 264 265 265 265 265 266 266 267 269 271 271 271 271 272 272 273 274 275 276 278 278 278 276 273 273 272 272 272 272 271 270 268 266 266 265 265 265 265 265 265 265 265 266 266 266 267 268 268 268 268 268 267 269 271 274 275 272
266 266 266 263 265 267 267 268 266 266 266 266 266 266 266 266 264 263 263 263 264 264 265 265 264 263 263 263 262 261 262 262 262 263 264 264 266 267 267 268 268 269 269 270 272 273 274 275 276 277 278 279 275 273 272 272 272 272 272 271 270 269 267 266 266 265 265 265 265 265 265 265 266 267 267 267 267 268 268 268 268 267 268 269 271 274 274
264 264 264 265 265 265 265 265 264 265 265 266 266 266 264 262 262 262 262 263 263 263 262 263 263 262 262 261 261 260 260 261 261 261 262 263 264 265 266 266 266 267 267 268 269 270 272 273 274 276 277 277 271 272 272 271 271 271 271 271 270 269 267 267 266 266 266 265 265 266 267 266 266 266 267 267 267 267 267 267 266 266 265 263 267 268 269
263 264 263 262 263 263 263 262 263 264 264 264 264 263 263 262 260 261 261 262 262 261 261 262 261 260 260 259 259 259 259 259 260 260 261 261 262 263 263 264 265 265 266 267 268 270 272 273 274 275 276 276 271 272 271 271 271 271 271 271 270 269 268 267 266 266 266 265 265 266 266 266 266 266 266 266 266 266 265 264 264 263 263 264 266 264 263
261 261 261 261 261 261 262 262 262 262 263 262 262 262 261 261 260 260 260 261 260 260 260 259 259 259 258 258 259 259 259 259 259 259 259 260 261 262 263 264 263 264 266 267 269 270 271 272 273 275 277 276 272 271 271 271 271 271 271 270 270 270 269 268 268 266 266 265 265 265 265 265 265 265 264 264 264 264 264 263 263 262 262 262 262 262 261
258 258 257 261 261 260 259 260 261 261 261 261 260 259 260 259 258 258 259 258 259 258 258 258 257 257 258 258 258 258 258 258 258 258 258 259 260 262 263 265 266 267 267 268 270 271 273 274 274 276 278 275 272 270 270 270 270 270 270 268 268 268 268 268 267 266 265 265 265 265 264 264 264 264 263 263 263 263 262 262 261 261 261 260 259 259 259
256 257 259 258 257 258 258 259 259 258 259 259 259 260 259 259 259 258 258 258 258 258 257 257 257 257 257 257 257 257 257 257 257 257 258 260 262 263 263 264 264 265 266 267 269 270 270 270 271 273 273 271 270 269 270 270 270 270 269 269 268 267 266 268 266 266 264 264 264 264 264 263 263 263 263 262 262 262 262 261 260 260 259 259 258 258 258
256 256 257 257 257 257 257 257 258 258 258 259 259 258 258 258 258 257 257 257 257 256 256 257 257 257 257 256 256 256 256 256 256 257 258 260 260 261 262 264 265 266 267 268 269 269 269 270 271 271 270 269 268 268 269 269 269 269 269 268 267 266 266 266 265 264 263 263 263 262 263 262 262 262 261 261 261 261 260 259 259 258 258 257 257 257 261
259 258 259 258 258 258 258 258 257 257 257 256 256 257 257 257 256 256 257 256 256 256 257 257 257 257 256 256 255 255 256 256 256 257 258 260 260 261 262 264 265 264 264 264 264 265 266 266 265 265 266 266 267 267 268 268 269 268 268 267 266 265 265 264 264 263 263 262 262 262 262 262 262 261 260 261 260 260 259 258 258 257 257 256 256 254 260
257 256 256 256 256 256 256 256 256 256 256 255 255 255 255 255 255 255 255 255 257 257 257 256 256 256 255 255 255 256 256 256 257 258 259 260 261 262 262 261 260 259 260 261 263 262 260 261 262 263 265 265 265 266 267 267 267 267 266 266 265 264 264 263 263 263 262 262 261 262 262 261 260 259 259 259 259 259 258 257 257 256 256 256 255 254 255
256 256 256 256 256 255 255 255 255 255 255 255 255 254 254 254 254 255 256 256 256 256 256 256 255 255 255 256 256 257 257 257 258 259 259 260 261 260 259 258 259 259 260 260 262 258 259 260 261 261 263 264 264 265 265 265 266 266 265 265 264 263 262 262 262 262 261 261 261 260 259 258 258 258 258 258 258 257 257 256 256 256 256 255 255 254 253
255 255 255 255 255 254 254 255 255 254 254 254 254 254 254 254 254 255 255 255 256 256 256 256 256 256 256 257 257 256 257 257 258 258 259 258 257 257 257 258 257 256 256 257 259 258 259 260 260 262 262 263 263 264 264 264 264 265 264 264 263 262 262 261 261 260 260 260 258 258 258 258 257 257 257 257 257 256 256 255 255 255 254 254 253 253 252
254 255 255 255 254 254 254 254 254 254 254 253 253 253 254 255 255 255 255 255 256 256 256 256 257 257 256 256 255 256 256 257 258 258 256 255 256 256 256 256 254 255 255 257 257 258 259 260 261 261 261 262 263 263 262 262 263 264 263 263 262 262 261 260 260 259 258 258 258 258 258 257 257 256 255 255 255 255 254 254 254 253 253 252 252 251 251
254 254 253 254 253 253 253 253 253 253 253 253 253 253 254 254 255 255 255 255 256 257 257 257 257 256 256 255 255 256 257 258 258 257 255 254 255 255 257 257 256 255 256 257 258 258 259 260 260 260 261 262 262 262 262 262 262 262 262 262 261 261 260 259 259 258 258 258 257 256 257 256 256 255 255 254 254 254 253 253 253 252 252 252 252 251 250
253 253 254 253 253 253 253 253 252 253 253 253 253 254 255 255 255 255 255 256 257 258 258 258 256 256 256 256 256 257 257 257 257 257 256 254 254 254 254 254 255 255 256 257 258 258 259 259 260 260 260 261 261 261 261 261 262 262 261 261 260 259 258 258 258 258 257 257 257 256 255 255 254 254 254 254 253 253 253 253 252 252 252 251 251 251 250
253 253 253 253 253 253 253 253 253 252 253 253 254 255 256 257 257 256 257 257 258 258 257 257 258 257 256 256 256 256 256 256 255 255 255 254 253 252 252 253 255 255 257 257 258 258 258 259 259 259 259 260 260 259 260 260 260 260 260 259 258 258 258 258 257 257 257 257 256 256 255 254 254 253 253 253 253 253 253 253 252 252 252 251 251 250 250
252 252 252 252 252 252 252 252 252 253 253 254 256 257 257 257 257 257 257 257 257 257 257 257 257 256 256 255 255 255 255 255 254 254 254 255 255 254 253 253 255 256 257 257 257 257 258 258 258 258 258 259 259 258 259 259 259 258 258 258 258 258 257 257 257 256 256 255 255 255 255 254 254 253 253 253 253 253 253 253 252 252 252 251 251 249 249
252 252 252 252 252 252 253 253 253 254 254 255 257 257 257 257 257 257 257 257 257 257 257 256 256 255 255 254 254 254 254 254 253 253 253 254 254 255 256 256 256 257 257 257 257 256 257 257 257 258 258 258 258 258 259 259 258 258 258 257 257 257 256 256 256 256 256 255 255 255 254 254 254 254 254 253 253 253 253 253 252 252 251 251 251 250 249
252 252 252 252 252 252 252 253 254 254 255 256 257 257 257 257 257 257 257 256 257 257 257 256 255 254 254 254 253 254 255 254 254 254 252 252 252 253 256 257 256 256 256 257 256 256 257 257 258 258 258 258 258 258 259 258 258 257 257 257 257 257 256 256 256 256 255 255 255 255 255 255 255 255 254 254 253 253 252 252 252 252 251 250 250 249 249
252 252 252 253 252 252 253 254 255 256 256 256 256 256 257 256 256 256 257 257 256 256 256 255 254 254 254 254 254 254 255 255 255 256 255 254 253 254 256 256 256 256 256 257 256 257 257 257 258 258 258 258 258 258 258 257 257 257 257 256 256 256 255 255 256 255 255 255 255 255 255 255 255 254 254 254 253 253 252 251 251 251 251 250 249 249 248
251 251 252 252 253 254 254 255 256 256 256 255 254 254 255 256 256 256 257 257 256 256 255 255 255 255 255 255 254 253 253 254 255 256 256 255 256 256 256 256 256 256 256 256 256 257 257 257 257 257 257 257 257 257 257 257 257 256 256 256 255 255 255 255 255 255 255 254 254 254 254 254 253 252 252 252 252 251 251 251 250 250 249 248 248 248 247
251 251 252 253 253 254 254 255 255 254 254 254 254 255 255 256 256 256 257 256 256 256 255 255 254 255 255 255 255 255 255 254 252 253 255 255 255 255 256 256 256 256 256 256 256 257 257 257 257 257 257 257 257 257 256 256 256 256 255 255 255 254 254 254 254 254 254 253 253 252 252 252 252 252 252 252 251 251 251 250 250 249 248 248 248 247 247
252 252 253 253 254 254 255 255 254 254 254 255 255 255 256 255 255 255 255 255 255 255 254 254 254 254 255 255 256 255 256 256 254 252 255 255 255 255 255 256 256 256 256 255 255 256 256 257 257 257 256 256 256 255 255 255 255 255 254 254 254 254 254 254 254 254 253 253 253 252 252 252 251 251 250 250 249 249 249 249 249 249 248 247 247 246 246
252 253 253 253 254 255 255 254 254 254 255 255 254 255 255 255 254 254 254 254 254 255 254 254 254 254 255 255 255 255 255 255 255 256 256 255 255 255 255 255 255 256 256 255 255 255 256 256 256 256 256 255 255 255 255 254 254 254 253 253 253 253 253 252 253 252 252 252 252 252 251 251 250 250 250 249 249 248 248 248 248 248 248 247 247 246 246
252 252 253 254 255 256 256 255 255 255 255 255 255 255 255 254 254 254 254 254 254 254 253 254 254 255 255 255 255 255 255 255 255 256 255 255 255 255 256 256 256 255 255 255 254 255 255 255 255 255 254 254 254 253 253 253 253 253 253 253 252 252 252 252 252 252 252 252 251 250 250 250 250 250 249 248 248 248 248 247 247 247 247 246 246 245 245
253 253 254 256 256 255 255 255 256 256 255 255 255 255 254 254 254 254 254 255 254 253 254 253 253 254 255 255 255 255 255 255 255 255 255 255 255 255 255 255 255 254 254 254 254 254 255 255 254 254 254 254 253 253 253 253 253 252 252 252 252 252 252 251 251 251 251 251 250 249 249 249 249 249 249 248 248 247 247 247 247 246 246 245 245 244 243
Wind_Speed
21 22 22 22 21 19 21 22 20 20 20 19 17 17 18 17 16 21 15 12 15 16 17 19 24 26 23 21 23 23 22 17 15 11 8 13 16 15 8 7 9 9 10 11 13 13 13 12 12 14 13 13 12 11 12 11 12 15 14 14 14 15 14 15 16 14 11 10 10 11 12 12 12 13 13 12 11 10 10 9 8 9 9 10 10 9 8
17 19 22 23 25 23 23 23 24 23 21 22 23 26 27 27 25 21 19 21 26 20 18 22 25 21 19 22 23 23 21 21 20 15 14 18 19 18 13 9 11 12 12 14 14 13 13 13 15 14 14 13 14 16 16 15 15 14 12 14 15 15 15 16 13 11 12 11 11 11 12 13 13 12 12 11 11 10 10 9 9 9 9 9 9 10 10
18 19 21 21 25 24 25 24 23 23 22 23 28 27 26 24 24 23 28 31 30 23 27 28 25 22 19 19 24 28 29 27 22 17 18 20 17 14 10 12 13 12 13 14 14 13 14 15 16 16 16 16 15 16 14 13 15 13 14 14 14 15 16 13 12 11 12 12 12 13 13 11 11 12 12 11 11 11 10 10 11 11 11 11 10 9 10
15 15 22 23 23 23 25 23 21 21 24 26 23 21 21 19 24 27 27 23 21 22 25 24 24 25 25 26 28 28 27 27 23 19 19 19 12 10 14 13 12 13 14 13 13 14 15 16 16 15 14 13 11 13 13 14 13 11 13 13 15 15 13 11 12 13 12 12 12 12 12 13 13 12 12 12 12 12 12 12 11 10 12 10 9 9 8
18 16 20 21 21 19 19 20 22 28 29 26 23 20 18 21 24 23 20 24 22 23 19 22 22 23 24 24 25 26 28 26 22 19 19 19 18 15 14 12 13 16 16 15 16 16 15 15 14 15 15 12 13 14 14 15 9 12 14 14 14 12 12 13 13 13 12 13 13 13 14 13 13 13 15 15 14 14 15 13 11 12 9 9 7 7 8
9 12 18 13 14 18 18 16 27 27 28 27 29 25 26 29 23 21 21 24 21 21 19 22 24 24 24 22 21 20 17 15 16 18 19 20 19 14 13 15 17 17 13 12 13 14 15 15 15 16 13 15 17 14 11 7 12 13 13 12 12 12 12 12 13 13 13 14 14 14 13 13 13 14 15 15 13 11 11 11 13 11 10 12 9 9 9
9 7 10 12 20 19 5 15 20 26 31 31 31 30 29 28 27 29 28 27 25 26 24 23 23 23 22 19 19 17 13 11 14 19 20 21 19 14 13 16 14 11 12 12 11 11 12 13 11 8 7 11 7 7 11 13 13 13 13 13 11 12 13 13 12 13 14 14 14 13 13 13 14 14 14 13 14 13 13 14 14 13 12 12 9 9 9
7 7 8 15 15 1 2 6 15 17 24 25 25 28 27 29 28 28 27 27 26 24 24 24 22 21 20 18 15 15 17 16 16 17 18 21 20 16 12 12 12 11 11 14 15 15 13 8 8 8 11 9 9 10 9 13 12 12 12 12 12 11 12 13 14 14 15 14 14 14 15 15 16 16 15 15 16 13 12 10 9 8 8 8 11 11 10
16 13 16 23 11 15 4 3 5 11 17 15 19 21 23 24 17 16 21 25 25 24 22 21 19 17 16 14 13 10 12 17 19 17 17 18 20 19 14 11 13 12 11 13 14 11 7 8 8 10 7 8 9 8 10 10 12 11 12 13 13 14 14 14 14 14 15 15 15 15 16 17 17 16 16 14 13 12 13 13 13 12 12 12 10 10 10
14 18 16 14 13 15 11 17 15 19 22 20 21 16 16 11 15 14 18 18 19 19 19 19 17 7 6 11 8 9 15 15 18 17 14 15 16 16 15 13 10 8 8 8 8 6 8 8 8 5 7 9 10 9 9 9 11 11 12 14 14 14 15 14 15 14 14 15 16 16 16 18 17 15 13 12 13 12 14 14 13 13 11 10 9 10 10
11 16 15 14 12 9 9 15 17 15 13 13 10 8 13 10 19 14 13 16 14 13 15 16 15 12 6 5 8 11 14 15 12 14 15 13 13 12 12 9 11 12 10 5 4 3 3 3 2 3 5 7 8 8 8 10 10 11 13 13 13 15 15 13 14 14 14 15 16 17 17 16 15 16 16 15 12 10 9 10 11 10 9 10 9 8 5
16 17 19 18 9 8 12 14 15 16 16 12 2 13 4 18 19 10 12 14 13 12 13 13 10 10 8 9 11 13 14 11 10 8 12 14 14 13 14 14 11 8 7 8 7 4 3 1 2 5 5 6 6 8 8 8 11 12 14 17 15 10 10 12 12 12 13 15 15 16 16 14 13 13 11 11 12 12 9 8 8 8 9 9 10 8 7
15 20 21 14 9 6 9 12 17 23 17 2 8 8 9 18 16 9 13 12 11 12 11 12 12 9 4 9 11 11 12 14 15 12 9 9 9 10 11 11 11 11 9 7 7 6 3 2 4 4 4 5 5 4 6 8 12 16 10 5 7 9 9 10 11 12 11 13 15 13 12 13 12 11 11 12 12 11 11 9 8 8 9 8 8 8 5
8 8 13 10 7 4 11 12 14 18 13 7 8 13 12 11 15 14 12 15 13 12 8 13 9 10 9 9 11 14 15 15 14 12 11 10 11 8 6 7 7 6 7 8 6 4 2 1 3 4 5 6 5 5 5 11 12 2 5 7 8 8 10 10 10 10 11 10 10 11 10 11 12 11 8 9 11 11 9 10 11 10 9 9 8 6 6
11 8 10 11 13 3 18 15 10 11 7 9 9 11 9 8 9 13 13 12 13 12 15 14 11 14 15 13 14 16 17 17 18 17 15 14 11 10 11 10 7 5 7 8 7 3 1 3 4 4 6 7 7 6 11 12 5 6 7 8 9 9 10 11 11 11 10 12 12 10 11 11 13 12 10 10 10 10 11 11 12 12 10 8 8 8 7
12 10 9 5 3 11 11 10 5 10 4 7 6 5 8 8 6 11 10 11 11 13 14 15 17 15 14 17 16 17 17 17 17 17 15 13 9 7 6 6 8 6 7 6 7 5 4 5 6 7 9 8 8 10 14 5 6 7 9 9 11 11 10 11 11 11 11 12 11 10 12 12 12 13 12 12 11 11 11 12 12 11 8 8 8 9 9
6 5 10 11 14 10 5 5 6 4 6 3 1 5 4 9 7 7 9 12 12 12 14 15 14 16 15 16 16 16 18 18 17 17 17 15 13 13 12 12 9 6 9 10 9 7 5 6 6 7 7 9 9 11 7 8 9 10 10 11 12 12 12 12 12 11 11 11 11 11 12 13 14 13 13 14 13 11 12 10 9 8 10 9 9 9 9
11 14 9 13 13 12 14 13 6 9 6 6 8 9 8 7 9 10 9 13 13 13 12 14 16 13 17 19 18 17 16 16 16 15 15 15 13 12 11 9 10 9 9 8 8 9 9 5 6 5 6 7 9 11 6 9 9 10 11 12 12 13 12 11 12 12 13 11 11 12 12 11 12 12 14 14 13 12 10 8 7 8 10 9 7 8 8
11 15 11 13 11 17 17 13 6 5 5 5 5 6 6 6 8 10 10 10 14 14 14 15 16 20 17 17 19 18 16 16 15 15 16 17 16 15 15 14 11 11 8 9 9 9 10 6 5 6 7 8 10 3 8 8 9 10 11 12 12 12 13 12 12 13 15 12 11 11 12 10 10 10 11 12 13 13 13 10 9 8 8 10 10 9 8
12 15 12 16 13 11 12 4 4 3 4 3 2 2 5 6 6 6 10 11 11 12 13 14 16 19 19 17 18 18 17 16 16 16 16 17 18 17 13 13 13 11 11 10 11 10 11 11 7 8 8 10 9 5 5 8 9 10 12 13 14 14 15 13 12 13 13 15 16 12 13 13 13 12 12 12 15 17 17 15 16 14 10 10 11 13 12
11 13 12 10 7 11 14 2 4 3 6 4 6 6 7 6 8 8 8 9 12 12 14 14 14 16 18 17 17 18 18 18 16 16 18 18 17 18 17 15 13 12 12 12 11 12 13 10 8 8 10 10 7 8 8 9 10 12 12 12 11 13 13 12 13 13 13 14 14 13 13 12 11 12 13 14 13 9 9 11 14 17 15 13 13 12 12
10 11 6 3 9 12 12 2 4 5 5 4 3 4 6 7 8 9 11 12 11 11 12 13 12 14 16 17 16 17 18 18 20 20 20 19 19 18 15 13 14 14 12 12 13 14 14 11 9 9 10 9 8 8 8 9 11 12 11 10 11 12 12 13 13 14 14 14 15 15 15 14 13 10 11 16 11 11 11 12 10 10 14 14 14 13 12
11 10 3 5 5 9 11 9 2 3 5 4 5 6 6 6 5 7 10 12 13 13 14 13 15 15 15 18 18 17 16 18 19 20 21 21 20 19 19 19 19 18 17 15 13 15 15 12 10 11 11 9 8 9 9 10 12 12 11 11 11 10 11 12 15 16 15 15 15 15 15 15 14 14 12 13 19 14 11 15 16 17 14 15 21 18 14
15 10 4 5 4 8 10 8 10 6 3 2 8 9 6 6 8 8 8 9 12 13 13 13 13 14 16 17 16 17 18 18 19 19 19 20 20 20 18 17 18 20 20 17 15 15 14 12 11 11 11 10 9 10 10 11 12 12 13 13 13 13 13 11 11 11 11 12 12 12 11 11 13 13 14 14 11 14 17 17 19 19 19 22 22 21 20
12 1 3 3 4 10 10 9 5 5 1 3 5 9 9 10 10 9 11 12 11 11 13 15 14 11 13 17 16 15 17 20 20 19 21 22 21 19 17 18 19 19 16 17 17 17 16 13 10 10 11 12 9 9 10 12 12 13 14 13 12 10 10 10 11 12 11 12 13 13 15 15 13 13 14 15 15 13 14 19 20 20 21 22 23 22 22
1 1 1 4 7 11 10 5 6 4 2 7 8 9 8 8 11 11 11 12 12 12 13 15 17 14 10 11 13 13 16 19 21 20 17 17 18 15 15 15 16 15 15 15 17 19 19 20 17 12 13 13 11 11 12 13 14 15 15 16 14 12 13 14 14 13 12 12 13 14 13 14 14 14 14 14 15 16 15 13 14 16 19 21 22 22 21
5 1 4 8 8 8 3 2 7 7 10 9 9 12 11 10 10 10 12 13 13 12 13 14 13 15 15 11 11 13 15 19 21 18 16 17 19 15 14 11 14 18 19 19 19 18 19 17 17 16 16 15 11 11 12 14 15 15 15 15 12 12 16 14 13 14 13 13 13 13 13 14 14 13 13 13 15 17 18 17 17 16 12 13 17 20 16
4 3 2 2 7 8 11 11 10 11 11 9 10 13 12 9 9 13 16 17 15 12 12 11 12 14 16 15 11 14 14 15 16 17 16 17 15 16 15 15 15 16 18 19 18 17 15 14 16 18 18 14 6 10 12 14 15 16 15 15 13 11 12 15 13 12 13 13 14 14 15 14 13 13 12 13 14 14 13 14 15 14 11 9 10 16 22
3 2 1 3 7 10 11 12 12 11 11 8 8 10 8 9 13 13 15 14 14 14 15 14 10 10 12 15 12 12 13 15 17 20 20 16 18 14 15 19 20 20 19 19 20 18 17 17 16 17 17 12 6 10 12 14 14 14 14 13 12 12 12 13 13 12 12 12 12 13 12 12 12 12 12 12 11 12 12 13 12 11 13 14 12 11 9
5 3 4 6 9 9 11 11 10 11 11 10 11 11 7 7 14 15 15 15 13 14 16 15 14 15 11 14 15 12 14 16 19 18 19 20 17 14 17 17 19 18 19 17 16 14 14 16 17 17 16 8 8 11 12 13 13 15 16 16 15 14 13 13 13 12 12 12 12 14 13 12 12 12 13 13 13 12 12 12 13 14 13 11 11 13 13
8 5 7 9 8 5 6 11 12 14 12 8 8 12 15 11 12 16 17 16 14 14 14 14 16 18 16 14 13 13 13 16 16 17 19 15 17 17 16 16 16 16 15 15 14 15 16 17 17 17 15 9 9 10 11 12 11 12 11 11 10 14 14 16 14 12 12 12 13 14 13 13 12 12 13 13 13 12 13 13 13 12 11 12 11 11 9
13 11 4 3 3 7 10 7 10 13 13 12 13 14 12 13 17 20 20 18 17 15 16 18 17 17 16 14 13 15 15 14 17 18 16 17 16 15 15 12 15 19 20 20 17 15 13 14 16 13 10 8 8 10 11 12 11 11 11 11 10 10 12 20 12 13 12 13 13 14 13 14 13 12 12 12 13 14 14 14 13 12 12 12 11 9 8
9 14 12 9 14 13 13 10 5 12 15 17 17 13 12 11 12 15 16 16 18 18 16 17 16 16 15 16 16 15 15 17 19 18 17 15 13 10 10 15 15 17 17 17 17 16 17 18 18 16 14 9 9 11 12 13 12 11 10 10 10 10 11 16 14 13 12 13 12 13 13 13 12 12 12 12 12 12 13 13 13 12 11 10 9 8 7
4 4 8 8 6 11 15 21 19 16 16 16 16 15 15 14 13 14 15 16 18 19 18 16 16 16 16 16 16 16 16 17 16 17 15 16 15 14 14 13 15 16 16 15 13 15 15 15 16 14 11 9 9 10 11 12 11 10 10 10 10 10 11 11 14 13 13 12 11 13 12 12 13 13 12 12 12 12 13 13 12 12 12 10 8 8 11
7 9 10 10 10 12 13 15 17 17 17 20 22 21 17 14 13 15 17 18 19 19 18 17 16 16 16 16 16 16 16 16 18 20 20 15 16 16 15 16 16 16 18 18 15 16 15 14 12 11 9 8 9 9 10 11 10 9 10 10 11 11 11 11 12 13 13 12 12 13 13 13 12 11 12 13 12 12 12 11 12 12 12 11 9 8 7
7 9 8 9 9 10 13 14 15 16 17 18 19 20 21 19 19 19 20 19 17 17 18 18 18 17 16 15 16 16 16 17 19 19 18 17 17 14 16 17 19 19 19 19 14 11 8 8 10 11 8 6 6 6 7 7 7 8 9 10 10 10 10 11 11 11 10 12 13 12 12 12 13 12 11 11 11 12 12 12 12 11 11 10 9 9 8
5 10 11 11 11 11 14 14 14 15 17 17 18 19 21 21 19 19 18 17 16 16 17 18 18 18 17 16 16 16 16 16 16 15 16 15 14 15 17 19 19 17 15 14 9 4 8 6 9 8 5 3 3 4 6 9 7 7 9 10 10 11 11 11 11 11 11 10 11 11 11 11 11 11 10 11 12 12 12 12 11 11 10 10 9 9 9
9 9 12 12 13 13 14 14 14 16 18 23 20 16 18 20 19 18 18 17 17 17 16 16 17 17 17 16 15 15 15 14 16 17 16 15 14 16 16 14 11 6 7 9 9 7 7 8 8 5 3 1 0 2 7 10 11 10 9 10 10 11 11 11 11 10 11 10 9 11 12 11 14 15 10 10 12 12 11 11 11 11 10 9 8 8 8
13 10 9 11 12 13 14 15 13 14 14 19 22 20 16 17 19 18 18 18 16 16 16 16 16 16 15 15 15 15 16 15 16 16 14 17 15 13 14 12 9 7 8 10 9 8 7 7 5 4 3 3 3 4 8 11 12 8 8 9 10 10 11 11 12 11 10 11 10 10 11 11 12 12 15 15 13 11 11 12 11 10 10 9 9 9 8
13 12 13 13 13 12 13 14 13 14 14 13 16 20 18 17 16 16 17 18 16 15 16 16 15 14 15 16 16 14 13 17 17 13 10 9 11 13 12 8 4 6 9 12 8 6 8 9 6 4 4 3 4 5 5 9 10 8 8 9 9 9 10 10 11 11 11 11 12 11 11 11 11 10 11 11 11 11 11 11 11 10 9 9 8 7 7
13 14 14 12 13 12 13 14 16 14 14 15 15 16 16 16 17 17 17 17 17 15 15 13 14 15 15 16 17 17 17 17 17 15 10 8 8 8 8 9 6 6 8 7 6 6 7 6 5 4 4 5 5 6 7 10 9 8 8 9 9 9 9 10 10 11 11 11 10 11 11 9 12 13 11 11 11 10 9 8 7 8 8 11 10 7 7
14 13 14 14 14 13 14 14 14 15 14 14 16 16 16 15 16 18 17 16 16 14 15 14 17 16 15 16 16 16 15 14 14 15 10 5 7 7 8 7 7 6 8 8 7 6 5 6 6 5 5 6 7 10 11 9 8 8 8 9 9 10 10 10 9 9 8 8 11 10 8 9 9 10 11 11 10 9 8 7 8 7 6 7 8 7 7
14 15 15 14 14 14 14 14 15 16 17 15 13 14 15 15 15 14 14 15 16 15 15 13 13 14 14 13 14 15 12 11 12 12 11 4 4 5 5 6 6 5 8 6 6 5 6 5 6 6 8 9 9 14 14 10 9 10 10 10 9 9 9 9 9 9 8 8 7 7 7 9 11 10 11 10 7 9 8 8 7 7 6 5 6 6 6
15 14 13 14 15 15 15 15 15 14 15 15 13 14 15 13 13 14 15 15 15 14 12 10 10 11 11 12 11 10 8 8 9 7 7 5 4 4 5 5 5 6 10 6 6 6 6 6 7 11 15 16 17 15 11 10 10 10 10 10 10 10 10 11 11 10 8 7 5 5 8 10 11 10 10 10 8 8 8 8 8 8 7 5 5 5 6
14 14 14 15 15 15 13 13 13 15 15 15 14 13 12 12 13 14 14 14 13 13 11 9 10 11 10 9 8 9 8 6 7 7 6 6 6 7 8 6 6 5 7 9 7 7 7 8 12 16 15 18 17 16 11 10 10 10 10 10 10 10 9 10 10 9 8 8 10 10 9 10 10 10 10 10 9 9 9 8 8 7 7 7 8 7 5
14 13 13 14 15 14 13 14 13 13 14 14 14 12 11 11 12 13 13 12 10 11 7 9 10 11 10 10 9 9 7 5 6 7 6 6 5 4 5 7 6 7 11 11 7 8 10 16 18 17 18 18 16 12 10 10 10 10 10 10 9 9 8 6 7 7 8 9 9 10 10 9 10 9 8 9 8 9 8 8 7 6 5 6 5 5 5
13 13 13 13 14 15 16 14 13 14 13 13 11 11 11 11 12 11 10 10 10 10 8 9 9 10 10 9 7 5 5 6 6 8 7 6 6 6 8 11 11 12 9 7 7 8 9 12 15 18 18 18 16 11 10 10 10 10 10 10 8 7 7 7 7 6 7 7 9 9 9 9 10 11 9 9 9 9 8 8 7 6 6 5 5 5 5
13 14 15 16 18 18 16 13 11 10 10 10 10 10 10 10 11 11 9 10 10 8 8 8 8 9 10 10 8 6 6 5 5 7 7 7 6 6 6 6 9 12 13 12 14 15 19 19 19 18 17 15 11 9 10 11 11 9 7 8 8 7 7 7 7 7 7 9 9 10 14 13 10 8 8 8 9 8 7 7 7 6 5 6 6 5 5
14 16 17 16 14 13 12 10 9 9 8 8 10 9 9 9 10 8 8 9 9 7 7 7 8 8 8 8 9 7 8 7 7 6 6 6 6 6 7 8 12 12 10 9 11 10 15 18 18 18 18 15 11 7 7 7 8 10 10 8 7 8 8 7 7 7 8 9 9 9 9 10 12 13 12 9 8 8 6 6 6 6 6 5 5 4 4
13 12 10 10 9 8 8 9 8 7 8 8 8 7 7 8 7 7 7 7 7 7 5 5 6 6 6 6 7 7 7 7 8 7 7 7 6 7 7 7 8 11 11 9 9 9 12 16 16 15 12 9 9 11 9 8 8 8 7 8 7 6 6 7 7 9 9 8 8 8 9 9 11 10 8 9 9 8 6 6 5 5 7 5 5 5 5
10 8 8 9 8 8 10 8 8 8 7 8 7 7 7 7 7 7 6 7 6 6 6 5 5 6 6 6 6 7 7 7 7 7 6 7 7 8 8 7 8 8 9 10 9 9 8 8 6 8 9 9 9 8 7 8 8 8 7 7 7 6 6 6 6 8 8 7 8 10 10 9 9 9 10 9 7 6 5 5 5 5 5 5 5 5 4
11 10 9 7 8 8 7 7 7 6 6 6 6 6 6 6 6 6 6 9 6 4 5 5 5 6 6 6 6 6 6 7 6 5 6 6 6 7 8 9 8 8 9 9 8 8 7 9 10 12 12 10 8 9 10 10 7 6 6 6 6 7 7 6 6 8 7 7 7 7 7 9 9 8 6 5 6 6 5 5 5 5 4 5 5 4 4
Wind_Direction
225 228 234 240 248 244 246 247 249 249 256 262 258 252 249 249 246 255 264 279 269 260 256 265 266 267 274 281 280 275 270 270 259 252 257 260 262 268 266 238 237 231 229 237 232 227 222 221 215 214 212 214 213 216 219 208 197 201 192 186 189 191 191 196 200 194 183 182 179 174 171 168 170 171 170 168 164 164 166 165 164 160 153 149 146 141 140
228 227 230 235 239 246 248 246 247 249 253 254 253 255 255 253 254 258 263 259 258 256 256 252 257 265 272 273 274 275 274 267 262 260 256 260 266 273 266 237 229 226 226 232 232 225 222 213 213 213 214 214 211 209 210 201 198 201 174 190 188 189 193 198 190 180 180 177 176 171 171 174 173 167 164 162 160 160 162 159 155 153 148 148 148 147 144
242 234 233 232 237 239 248 248 248 250 252 251 248 250 254 259 264 262 257 253 255 253 252 255 258 260 263 268 269 270 270 268 267 266 264 264 264 265 251 231 232 234 230 230 231 224 221 216 214 212 211 211 210 212 210 201 201 191 183 187 189 189 196 188 177 173 174 178 170 176 175 168 166 164 162 158 158 158 157 158 158 157 153 152 154 149 150
240 228 237 232 234 234 238 246 250 250 246 248 248 246 242 242 249 248 250 254 253 250 251 257 255 258 256 256 258 261 264 269 272 268 267 268 262 247 245 233 229 235 233 231 230 224 221 219 216 214 214 215 207 213 206 203 199 177 182 187 189 192 188 174 175 175 176 170 172 174 169 171 166 163 157 157 161 162 160 161 163 161 163 158 145 146 146
242 228 233 234 234 234 232 225 232 238 243 244 248 247 246 237 239 246 246 246 243 248 245 253 254 252 250 249 251 257 261 266 273 277 274 271 266 251 243 233 233 236 231 227 227 224 224 222 218 218 212 203 204 209 202 204 166 173 185 188 187 185 179 176 177 174 171 172 173 172 175 168 164 162 163 164 166 166 171 168 160 158 143 137 146 143 151
250 229 241 234 235 220 223 204 216 222 235 240 244 244 242 243 233 239 236 249 253 255 250 245 250 252 251 249 251 253 265 279 279 274 268 265 265 256 237 232 235 240 230 229 226 224 225 225 218 219 203 198 209 205 190 154 169 183 180 185 183 182 175 178 176 174 171 172 174 174 168 165 164 166 168 173 169 164 155 155 157 157 160 151 158 161 166
256 237 248 246 228 243 215 212 213 218 228 233 239 242 241 246 247 249 252 252 250 249 252 254 254 254 259 260 264 268 269 257 260 265 270 272 270 261 244 243 241 231 221 224 228 234 238 233 228 218 207 209 197 150 161 173 177 172 182 178 179 177 178 178 173 174 173 172 171 168 166 164 165 168 171 165 165 166 163 166 167 169 165 166 168 163 165
266 240 227 247 243 121 275 205 211 218 233 233 243 251 251 255 251 250 252 254 258 256 258 260 261 263 265 269 269 273 272 272 275 277 276 277 277 266 246 239 238 224 216 217 218 225 229 219 221 203 209 189 174 187 163 170 171 175 173 176 178 173 178 180 179 176 172 172 169 167 166 167 169 172 173 170 168 166 162 162 162 157 166 165 164 168 168
251 244 241 247 277 273 174 100 208 190 217 215 221 242 245 248 282 296 289 286 281 281 282 282 279 274 272 271 276 285 337 349 350 339 322 311 305 301 291 270 262 249 223 217 220 224 225 208 204 208 191 165 168 154 165 168 165 168 168 177 181 182 183 180 178 175 174 171 170 169 170 171 175 174 171 170 169 166 165 168 167 171 170 171 169 164 152
232 254 256 263 254 251 248 226 222 210 216 210 220 228 257 45 12 21 25 15 10 6 0 354 328 310 312 282 283 17 355 355 348 342 346 348 346 341 328 324 316 305 301 299 283 237 222 217 210 180 156 158 155 161 166 160 160 172 176 187 184 182 184 180 177 174 174 172 171 172 173 178 176 173 168 166 170 173 172 170 174 174 165 160 162 165 157
243 247 248 253 263 264 26 350 336 321 300 256 254 254 254 26 358 6 16 9 6 14 4 349 355 29 22 344 339 336 353 338 338 336 336 341 342 341 343 333 332 328 321 304 302 299 257 227 32 85 122 136 146 165 166 169 170 171 190 189 183 188 186 175 173 173 172 173 174 174 178 178 173 170 172 171 165 166 176 173 171 164 161 157 153 158 143
258 267 266 268 272 297 354 335 331 316 312 287 153 243 172 350 340 338 13 6 349 5 357 352 8 26 1 336 323 325 323 327 313 315 328 333 336 336 338 343 350 341 339 7 17 22 26 53 101 110 130 144 162 168 174 162 176 191 195 197 192 173 162 168 170 170 173 174 175 176 177 170 172 172 163 159 166 165 167 167 162 158 156 153 150 154 151
265 255 257 256 248 92 8 350 346 352 326 103 192 238 0 320 312 344 3 357 344 347 346 4 339 343 316 292 291 304 308 315 322 324 327 320 316 323 332 333 339 351 355 9 356 343 352 74 101 115 120 137 171 173 167 177 199 208 195 145 146 164 159 162 169 172 170 174 173 175 173 169 163 161 167 167 162 164 158 155 152 150 147 142 137 142 142
306 319 299 293 327 65 7 15 36 9 3 344 1 309 300 316 319 342 337 341 339 334 345 332 315 300 295 287 291 300 307 308 304 309 310 316 319 314 310 318 341 342 338 341 353 5 359 79 115 136 142 159 172 171 169 207 218 98 122 148 140 147 162 165 164 166 168 165 164 164 161 157 161 163 162 160 162 157 153 149 151 147 145 144 140 135 136
293 273 282 284 276 51 31 355 8 49 55 279 285 315 330 317 331 325 337 341 332 330 323 318 306 305 308 310 312 314 314 317 317 317 318 316 314 312 322 328 324 329 330 321 316 286 219 176 168 171 158 170 178 179 202 216 153 147 137 146 152 153 156 161 163 162 161 161 161 160 162 164 160 160 157 157 157 155 151 150 151 150 147 139 137 143 153
259 255 245 227 16 335 353 36 359 325 314 292 302 304 335 334 350 343 324 337 333 333 324 325 325 323 322 324 327 324 321 321 319 317 317 313 303 294 280 267 287 295 288 273 277 251 203 191 184 179 175 181 187 192 220 178 153 148 155 152 154 156 159 161 158 160 161 159 159 160 161 159 161 158 162 161 158 161 161 158 156 153 149 147 149 153 162
307 282 300 313 321 319 315 355 319 328 8 28 279 2 346 347 348 347 338 328 334 339 332 327 328 321 327 320 318 320 318 317 318 318 318 319 317 312 313 309 299 287 281 282 279 269 240 211 203 195 191 189 192 211 215 159 167 165 160 159 156 163 162 161 161 157 153 158 159 161 164 163 163 165 164 163 163 169 166 169 159 144 156 159 157 159 160
302 288 294 303 303 312 318 333 4 35 27 38 28 18 2 350 339 337 333 328 326 327 331 324 317 314 314 314 313 310 308 306 307 309 310 311 313 310 308 307 305 301 296 286 285 279 279 249 234 220 215 198 202 224 159 171 169 166 160 160 165 164 162 160 159 154 152 152 156 162 165 170 171 171 168 170 166 165 170 162 157 151 150 154 147 156 161
313 285 314 291 309 310 315 325 60 68 56 41 36 13 338 328 329 326 322 319 318 317 318 315 311 310 311 308 306 306 306 306 306 308 309 307 308 312 311 308 311 308 300 289 281 274 276 269 241 241 226 229 233 210 165 173 168 165 166 166 166 164 164 162 156 160 160 161 159 163 168 168 169 172 176 174 168 168 169 165 166 154 150 155 155 162 162
264 279 297 299 301 290 284 299 85 21 358 360 35 326 311 308 308 307 307 315 312 315 314 312 311 307 308 309 308 310 309 309 310 310 308 307 307 305 303 303 306 301 293 282 274 269 264 263 239 237 230 233 231 203 172 168 167 166 173 175 173 175 170 165 164 165 166 162 162 167 174 171 171 177 187 184 177 177 174 173 168 172 162 159 164 164 162
282 279 278 274 311 297 286 307 125 22 349 342 328 332 318 313 314 316 318 311 308 314 304 307 308 305 305 310 312 311 312 311 311 310 308 305 304 305 307 305 299 292 291 285 273 267 265 260 243 234 235 233 220 197 183 172 169 174 184 184 177 171 168 164 167 170 167 169 172 171 173 175 181 183 182 186 185 176 179 173 172 166 170 176 173 168 155
274 276 275 76 314 294 296 281 97 359 308 294 283 311 319 324 324 324 318 310 303 298 299 305 308 306 305 308 314 313 311 309 311 312 310 309 308 306 305 308 306 298 289 281 280 276 271 267 252 244 243 234 215 203 180 177 175 181 181 178 180 180 178 177 171 170 172 173 176 174 173 174 170 174 195 190 184 176 171 183 191 193 176 172 169 159 150
267 272 239 182 232 270 255 278 33 337 301 322 328 312 318 313 310 316 311 304 304 303 306 311 310 307 305 307 313 312 310 309 311 310 311 311 310 308 311 312 307 302 300 294 283 274 272 268 256 250 246 233 211 198 187 182 183 187 176 182 190 187 184 189 184 181 179 176 176 177 176 171 171 169 163 180 190 189 183 178 178 171 169 158 151 148 141
268 273 206 177 201 252 287 308 312 312 294 358 316 308 311 313 308 303 290 288 295 296 296 298 300 303 304 306 313 310 307 305 306 306 305 302 299 302 304 303 303 305 304 300 293 283 275 268 258 252 248 239 216 199 190 188 187 188 188 187 193 196 193 190 177 180 179 174 169 168 171 173 172 167 165 158 171 180 175 172 166 161 156 153 148 143 141
268 129 179 202 249 274 272 274 271 274 289 11 316 306 313 317 310 306 301 301 298 299 300 297 297 295 304 308 308 305 304 302 300 301 299 296 295 297 299 304 305 306 309 313 312 308 303 294 274 258 249 244 220 198 192 190 188 192 196 198 200 194 186 180 180 181 175 174 175 172 172 173 176 175 169 165 158 154 164 162 156 152 151 149 147 145 145
83 95 293 259 265 267 273 301 275 228 344 336 314 301 308 308 302 307 301 301 302 303 295 293 298 301 295 293 297 303 300 294 297 298 295 293 294 294 295 299 302 306 305 303 297 293 293 296 294 275 253 245 221 200 194 190 193 197 199 200 199 187 183 183 178 181 181 179 177 180 179 177 178 175 172 165 157 153 150 151 150 149 150 148 146 145 149
85 47 6 325 278 262 207 208 286 328 325 317 308 302 308 307 305 306 303 298 291 290 287 289 293 297 298 288 288 287 288 293 295 292 289 288 286 289 298 306 307 302 297 290 285 283 286 288 288 281 265 252 222 199 193 192 195 201 203 201 199 196 190 182 183 183 179 179 180 177 177 178 179 174 169 166 159 157 156 155 150 147 151 150 151 149 151
92 40 44 221 271 297 300 311 314 304 301 295 301 305 306 310 311 306 303 302 301 295 290 288 293 294 297 299 303 297 294 288 284 285 286 284 291 300 306 304 299 293 289 286 282 283 281 278 276 275 273 268 217 196 195 193 198 202 204 200 198 191 186 186 183 184 182 182 179 179 177 178 175 170 164 161 161 158 153 148 146 144 140 138 141 152 154
107 88 351 267 275 282 289 293 297 292 287 293 294 289 298 308 300 296 292 292 296 300 295 298 293 283 286 293 297 293 291 288 288 290 290 292 296 298 299 299 296 290 285 284 284 286 283 279 273 270 268 263 192 199 195 195 197 203 204 202 198 193 188 188 186 180 179 177 179 177 172 169 166 165 164 161 157 152 148 144 140 137 134 129 125 119 109
349 340 315 287 272 280 290 290 292 297 299 301 300 296 296 301 296 292 289 291 295 293 292 298 299 294 291 289 290 285 283 286 289 290 292 292 293 296 295 292 287 281 278 274 275 281 286 289 289 284 281 267 195 204 195 197 204 205 204 199 199 193 191 183 178 175 170 174 172 165 167 167 168 164 162 160 157 151 143 140 140 137 137 130 127 131 133
309 301 286 278 270 272 275 296 302 295 294 295 296 299 301 299 286 289 292 294 293 289 292 294 295 296 296 289 287 285 281 281 281 282 283 283 285 286 282 281 280 285 285 283 281 277 275 274 274 272 273 250 205 205 197 202 207 207 208 205 202 198 181 171 170 171 169 165 164 166 168 168 168 164 162 156 151 145 142 141 139 136 131 133 135 138 132
321 315 265 226 350 314 300 291 289 292 297 302 301 296 299 307 304 300 300 301 297 297 300 299 296 296 294 294 290 289 287 283 282 281 278 279 277 269 265 270 282 287 288 288 289 288 285 283 280 284 289 249 209 197 198 201 202 199 203 194 188 185 169 164 166 167 165 168 166 166 167 164 164 160 156 154 151 144 143 142 143 142 141 139 140 138 138
343 337 339 342 332 323 310 295 266 295 304 304 298 294 292 284 282 284 288 293 298 298 298 294 293 293 296 297 294 291 289 288 286 282 282 278 275 281 292 289 278 273 273 276 280 282 282 279 279 283 281 251 216 205 199 199 197 198 195 184 182 173 168 171 162 162 161 165 167 167 163 160 156 154 156 150 144 144 144 144 139 137 134 132 130 133 135
320 276 276 299 301 301 307 306 310 308 300 294 288 290 292 293 291 289 290 294 292 293 293 295 296 296 296 295 293 291 292 295 295 295 292 292 293 294 292 286 279 276 276 284 289 289 287 284 286 286 278 247 221 209 204 198 197 194 182 175 166 162 163 163 157 158 160 161 159 154 152 150 153 155 153 150 148 147 146 141 138 135 131 126 131 137 151
291 282 282 281 283 278 280 281 289 293 296 296 299 300 296 292 292 291 293 294 293 294 297 297 296 296 293 292 289 287 287 284 288 290 291 293 297 299 294 296 303 302 295 288 285 281 275 274 276 275 260 234 220 210 205 197 188 177 171 163 158 157 160 155 158 158 157 153 148 151 153 156 155 151 150 147 146 142 135 132 131 131 128 128 132 118 159
293 288 281 276 274 274 275 275 275 277 279 281 284 290 294 297 300 299 298 295 295 295 295 296 295 294 291 288 288 290 289 287 286 284 287 295 299 298 307 311 305 298 294 293 287 275 282 273 267 257 250 235 223 215 196 184 168 161 153 148 148 146 147 149 149 147 149 148 150 153 155 150 143 143 143 139 134 130 128 125 126 124 126 129 131 106 69
270 282 288 287 283 278 276 275 277 281 281 281 283 289 292 294 294 293 292 291 294 295 295 295 294 292 289 288 284 284 282 282 283 289 293 294 299 307 306 301 296 292 301 299 317 338 291 280 290 281 272 238 216 187 166 153 148 142 140 141 141 142 142 142 143 142 144 144 142 137 132 134 135 130 134 133 129 123 124 124 122 123 125 128 121 114 108
292 285 286 285 286 284 279 277 280 281 284 284 281 279 285 291 294 293 292 294 294 294 292 289 287 288 289 291 288 285 285 284 286 288 292 302 310 301 295 290 293 309 291 287 316 311 298 304 305 308 323 321 251 140 146 141 135 138 139 139 140 139 138 137 137 138 136 134 133 136 138 139 136 132 127 119 117 120 120 120 122 126 128 125 121 121 123
299 293 278 280 280 280 282 284 282 279 281 286 292 292 287 285 287 291 291 292 292 292 291 291 291 291 295 297 296 294 291 289 291 297 303 304 303 291 283 280 252 274 274 295 304 303 308 314 324 333 344 358 71 99 121 124 124 123 126 130 132 132 131 134 135 135 133 133 132 132 128 129 124 124 114 108 111 112 112 113 122 126 127 128 129 133 133
299 299 295 295 292 292 290 289 289 288 287 284 289 292 295 293 291 291 291 292 293 293 293 294 297 301 301 298 298 297 303 310 312 308 299 296 302 294 291 276 255 297 309 314 313 310 324 336 341 345 4 37 77 101 106 107 104 107 116 118 121 122 126 126 127 128 131 132 130 129 128 125 127 122 118 115 113 114 119 121 122 125 125 124 126 130 128
297 299 301 299 295 298 296 298 298 294 293 292 287 284 286 288 292 293 295 295 295 293 292 298 302 300 300 304 307 311 315 315 314 311 307 305 304 311 307 308 339 329 310 318 316 326 346 352 349 9 23 47 62 89 96 90 94 101 105 109 111 112 115 120 125 128 131 130 131 127 131 136 124 116 113 110 113 116 116 111 115 120 129 124 111 128 127
301 301 299 300 299 300 299 297 295 297 293 288 286 286 285 287 291 293 294 297 299 303 304 303 305 308 310 311 309 307 309 317 324 323 318 307 314 315 315 318 344 312 329 330 341 349 345 9 15 32 43 63 62 74 79 81 82 87 88 90 98 106 110 110 110 111 111 111 118 122 123 116 91 105 111 111 112 113 104 106 109 109 108 125 131 134 136
307 306 305 304 302 302 300 301 300 297 295 292 288 291 297 299 297 297 300 305 307 306 306 304 310 313 313 313 316 313 312 322 322 321 320 297 313 302 307 308 316 328 4 9 6 3 19 19 39 45 63 71 79 77 76 79 83 87 90 91 93 95 96 99 103 103 95 101 106 106 96 101 102 97 112 111 97 116 115 116 113 120 123 117 121 128 131
306 303 302 302 302 301 301 299 296 295 296 301 302 302 302 302 305 309 309 307 306 304 303 307 313 316 318 320 321 319 324 332 329 319 317 321 346 342 340 330 334 13 27 22 26 32 37 47 56 71 73 76 76 77 80 81 83 84 85 88 91 93 98 98 105 105 98 105 83 90 106 108 109 111 114 117 115 115 117 117 121 122 122 116 120 124 122
304 305 302 300 299 300 299 296 298 300 298 299 303 305 308 311 313 311 308 305 305 310 308 323 328 327 323 323 319 317 319 333 325 332 337 347 355 8 1 7 26 32 35 46 47 52 57 65 73 74 78 77 76 76 77 78 80 84 88 91 92 94 95 102 104 103 107 113 111 105 99 105 112 113 114 111 111 115 121 124 122 126 126 127 122 132 142
301 301 300 300 300 299 297 295 293 292 298 308 308 307 313 316 315 313 309 308 327 327 343 352 334 328 323 318 318 320 320 331 340 353 9 8 22 359 13 41 33 43 46 51 61 63 71 73 73 72 72 72 72 73 75 76 79 81 83 84 85 89 85 79 89 104 109 106 105 104 107 107 108 107 109 117 116 115 115 115 116 118 126 133 138 140 140
302 302 301 300 298 298 298 294 294 301 309 310 310 315 319 318 318 315 313 334 338 335 354 345 334 329 327 325 326 329 337 344 13 25 17 18 21 33 46 53 56 52 51 53 62 66 75 72 73 74 76 78 79 81 81 82 80 83 83 88 77 76 72 78 81 77 87 91 97 97 97 100 101 88 99 107 110 113 122 123 123 127 126 128 127 128 125
306 305 303 302 300 295 292 297 304 310 311 309 312 311 312 316 318 318 336 347 336 353 351 341 342 341 344 352 357 10 8 355 31 30 22 28 29 35 40 49 56 59 61 64 67 67 68 70 71 73 74 75 75 77 77 84 86 83 67 82 77 75 83 87 80 86 85 94 95 81 65 69 97 108 108 111 108 116 123 124 130 131 135 139 144 142 137
306 302 300 297 290 290 303 309 313 313 311 313 314 313 318 322 324 332 347 343 342 355 352 345 350 354 356 6 20 26 36 34 47 57 31 37 35 33 38 48 56 58 62 64 65 66 67 72 73 74 74 75 71 48 51 67 74 83 79 73 66 80 76 73 74 78 83 94 99 101 102 105 86 84 83 105 105 95 118 120 127 134 140 135 128 136 154
306 305 304 302 304 312 321 321 318 313 316 319 317 317 327 333 338 345 347 344 348 357 355 355 5 2 11 15 26 32 34 39 44 46 50 49 50 52 54 55 61 62 65 71 70 66 61 64 68 70 74 73 73 76 64 56 61 62 68 78 76 63 67 80 82 89 95 98 97 98 102 106 91 102 109 108 102 90 100 115 118 122 124 128 144 164 172
310 301 291 295 304 318 319 316 315 320 318 321 319 329 337 344 344 344 342 356 349 357 5 2 11 13 15 25 31 33 39 41 45 43 47 46 50 53 52 58 61 63 66 68 67 68 63 59 47 68 67 59 54 45 47 61 71 66 66 74 72 66 71 83 81 51 67 90 95 92 99 81 92 106 100 100 115 122 123 126 131 143 152 167 164 176 186
303 290 286 315 330 324 323 329 324 319 322 328 324 340 345 351 347 351 354 5 354 342 359 358 9 12 18 22 31 42 46 49 47 48 54 57 55 58 51 54 54 55 58 66 66 66 63 71 69 68 70 70 65 75 75 68 61 60 59 66 67 64 71 72 78 70 68 85 92 86 96 93 97 114 120 124 126 130 137 145 150 160 166 168 164 176 179